Weather History for EHRD - September, 2012

Change the Weather History Date:

Saturday, September 15, 2012

  Actual Average Record
Temperature  
Mean Temperature 58 °F -  
Max Temperature 64 °F 60 °F 78 °F (2006)
Min Temperature 51 °F 48 °F 42 °F (2003)
Degree Days  
Heating Degree Days 8    
Growing Degree Days 8 (Base 50)    
Moisture  
Dew Point 52 °F    
Average Humidity 78    
Maximum Humidity 100    
Minimum Humidity 59    
Precipitation  
Precipitation 0.00 in - - ()
Sea Level Pressure  
Sea Level Pressure 30.01 in    
Wind  
Wind Speed 7 mph ()    
Max Wind Speed 14 mph    
Max Gust Speed -    
Visibility 7.1 miles    
Events Rain    
Averages and records for this station are not official NWS values.
T = Trace of Precipitation, MM = Missing Value Source: Averaged Metar Reports

Daily Weather History Graph

Daily Weather History Graph

Search for Another Location

Airport or City:

Trip Planner

Search our weather history database for the weather conditions in past years. The results will help you decide how hot, cold, wet, or windy it might be!

Date:

Astronomy

Sep. 15, 2012 Rise Set
Actual Time 7:17 AM CEST 7:56 PM CEST
Civil Twilight 6:43 AM CEST 8:30 PM CEST
Nautical Twilight 6:02 AM CEST 9:10 PM CEST
Astronomical Twilight 5:19 AM CEST 9:53 PM CEST
Moon 6:31 AM CEST (9/15) 7:12 PM CEST (9/15)
Length of Visible Light 13h 46m
Length of Day
12h 38m
Waning Crescent, 1% of the Moon is Illuminated
Sep 15
Waning Crescent
Sep 16
New
Sep 22
First Quarter
Sep 30
Full
Oct 8
Last Quarter

Hourly Weather History & Observations

Time (CEST) Temp. Dew Point Humidity Pressure Visibility Wind Dir Wind Speed Gust Speed Precip Events Conditions
12:25 AM 60.8 °F 50.0 °F 68% 29.92 in 6.2 mi WNW 6.9 mph - N/A   Partly Cloudy
12:55 AM 60.8 °F 50.0 °F 68% 29.92 in 6.2 mi WNW 5.8 mph - N/A   Unknown
1:25 AM 60.8 °F 51.8 °F 72% 29.95 in 6.2 mi NW 5.8 mph - N/A   Mostly Cloudy
1:55 AM 59.0 °F 51.8 °F 77% 29.95 in 6.2 mi West 5.8 mph - N/A   Scattered Clouds
2:00 AM 60 °F 52 °F 67% 29.96 in 15 mi WNW 6.7 mph - -   Partly Cloudy
2:25 AM 59.0 °F 51.8 °F 77% 29.95 in 6.2 mi West 5.8 mph - N/A   Partly Cloudy
2:55 AM 59.0 °F 51.8 °F 77% 29.95 in 6.2 mi West 4.6 mph - N/A   Mostly Cloudy
3:25 AM 59.0 °F 53.6 °F 82% 29.95 in 6.2 mi West 4.6 mph - N/A   Overcast
3:55 AM 57.2 °F 53.6 °F 88% 29.95 in 6.2 mi WSW 4.6 mph - N/A   Mostly Cloudy
4:25 AM 57.2 °F 53.6 °F 88% 29.95 in 6.2 mi WSW 4.6 mph - N/A   Overcast
4:55 AM 57.2 °F 53.6 °F 88% 29.95 in 6.2 mi WSW 5.8 mph - N/A   Partly Cloudy
5:00 AM 57 °F 53 °F 83% 29.97 in 15 mi WSW 4.5 mph - -   Partly Cloudy
5:25 AM 59.0 °F 53.6 °F 82% 29.95 in 6.2 mi West 5.8 mph - N/A Rain Light Rain
5:55 AM 59.0 °F 53.6 °F 82% 29.95 in 6.2 mi West 5.8 mph - N/A   Overcast
6:25 AM 59.0 °F 53.6 °F 82% 29.98 in 6.2 mi West 5.8 mph - N/A   Mostly Cloudy
6:55 AM 55.4 °F 51.8 °F 88% 29.98 in 6.2 mi West 5.8 mph - N/A   Unknown
7:25 AM 53.6 °F 50.0 °F 88% 29.98 in 6.2 mi WSW 4.6 mph - N/A   Unknown
7:55 AM 55.4 °F 51.8 °F 88% 29.98 in 6.2 mi WSW 5.8 mph - N/A   Unknown
8:00 AM 54 °F 51 °F 87% 30.01 in 15 mi WSW 6.7 mph - -   Partly Cloudy
8:25 AM 55.4 °F 51.8 °F 88% 30.01 in 6.2 mi SW 5.8 mph - N/A   Unknown
8:55 AM 59.0 °F 53.6 °F 82% 30.01 in 6.2 mi WSW 5.8 mph - N/A   Unknown
9:25 AM 60.8 °F 53.6 °F 77% 30.01 in 6.2 mi West 9.2 mph - N/A   Overcast
9:55 AM 60.8 °F 53.6 °F 77% 30.01 in 6.2 mi West 11.5 mph - N/A   Scattered Clouds
10:25 AM 60.8 °F 51.8 °F 72% 30.04 in 6.2 mi West 9.2 mph - N/A   Unknown
10:55 AM 62.6 °F 51.8 °F 68% 30.04 in 6.2 mi WSW 11.5 mph - N/A   Scattered Clouds
11:00 AM 63 °F 52 °F 59% 30.05 in 15 mi WSW 11.2 mph - -   Partly Cloudy
11:25 AM 60.8 °F 51.8 °F 72% 30.04 in 6.2 mi WSW 9.2 mph - N/A   Scattered Clouds
11:55 AM 60.8 °F 51.8 °F 72% 30.04 in 6.2 mi West 8.1 mph - N/A   Partly Cloudy
12:25 PM 60.8 °F 53.6 °F 77% 30.04 in 6.2 mi West 9.2 mph - N/A   Mostly Cloudy
12:55 PM 62.6 °F 51.8 °F 68% 30.04 in 6.2 mi West 10.4 mph - N/A   Overcast
1:25 PM 64.4 °F 53.6 °F 68% 30.04 in 6.2 mi WSW 13.8 mph - N/A   Scattered Clouds
1:55 PM 62.6 °F 51.8 °F 68% 30.04 in 6.2 mi WSW 11.5 mph - N/A   Mostly Cloudy
2:00 PM 63 °F 53 °F 60% 30.05 in 18 mi West 11.2 mph - -   Partly Cloudy
2:25 PM 64.4 °F 51.8 °F 64% 30.04 in 6.2 mi WSW 12.7 mph - N/A   Scattered Clouds
2:55 PM 64.4 °F 53.6 °F 68% 30.04 in 6.2 mi WSW 11.5 mph - N/A   Mostly Cloudy
3:25 PM 62.6 °F 51.8 °F 68% 30.04 in 6.2 mi West 11.5 mph - N/A   Mostly Cloudy
3:55 PM 62.6 °F 51.8 °F 68% 30.04 in 6.2 mi West 11.5 mph - N/A   Partly Cloudy
4:25 PM 64.4 °F 53.6 °F 68% 30.04 in 6.2 mi West 10.4 mph - N/A   Mostly Cloudy
4:55 PM 62.6 °F 53.6 °F 72% 30.04 in 6.2 mi WSW 11.5 mph - N/A   Mostly Cloudy
5:00 PM 62 °F 53 °F 65% 30.05 in 12 mi West 11.2 mph - -   Mostly Cloudy
5:25 PM 64.4 °F 53.6 °F 68% 30.04 in 6.2 mi West 10.4 mph - N/A   Mostly Cloudy
5:55 PM 62.6 °F 53.6 °F 72% 30.04 in 6.2 mi WSW 11.5 mph - N/A   Mostly Cloudy
6:25 PM 60.8 °F 53.6 °F 77% 30.04 in 6.2 mi West 9.2 mph - N/A   Unknown
6:55 PM 60.8 °F 51.8 °F 72% 30.04 in 6.2 mi West 8.1 mph - N/A   Unknown
7:25 PM 59.0 °F 51.8 °F 77% 30.04 in 6.2 mi West 5.8 mph - N/A   Unknown
7:55 PM 57.2 °F 51.8 °F 82% 30.04 in 6.2 mi WSW 5.8 mph - N/A   Unknown
8:00 PM 55 °F 51 °F 81% 30.03 in 7 mi WSW 4.5 mph - -   Partly Cloudy
8:25 PM 53.6 °F 50.0 °F 88% 30.01 in 3.1 mi SW 4.6 mph - N/A   Mist
8:55 PM 53.6 °F 50.0 °F 88% 30.04 in 6.2 mi SW 4.6 mph - N/A   Unknown
9:25 PM 53.6 °F 50.0 °F 88% 30.04 in 6.2 mi SSW 3.5 mph - N/A   Unknown
9:55 PM 51.8 °F 51.8 °F 100% 30.04 in 6.2 mi SSE 3.5 mph - N/A   Unknown
10:25 PM 51.8 °F 50.0 °F 94% 30.01 in 6.2 mi South 6.9 mph - N/A   Unknown
10:55 PM 53.6 °F 51.8 °F 94% 30.01 in 6.2 mi South 5.8 mph - N/A   Unknown
11:00 PM 55 °F 52 °F 85% 30.03 in 8 mi South 6.7 mph - -  
11:25 PM 55.4 °F 51.8 °F 88% 30.01 in 6.2 mi South 6.9 mph - N/A   Unknown
11:55 PM 55.4 °F 51.8 °F 88% 30.01 in 6.2 mi South 6.9 mph - N/A   Unknown